AEROCUBE 2

Satellite information

Favourite Embed

Satellite Type and Status

PAYLOADIN ORBIT

Key statistics

Satellite AEROCUBE 2 at a glance.

Uptime

6594

Days in orbit

Revolutions

≈ 14.7

Per day

Orbit

SSO

Sun Synchronous Orbit

Inclination

98.4

Latest

Satellite identification and parameters

Extended collection of information and parameters for AEROCUBE 2.

Object identification

Identified? True

Debris? False

Object name: AEROCUBE 2

International designator: 2007-012R

Object number (NORAD): 31133

Object ID (CCSDS): 31133

Country: UNITED STATES OF AMERICA (US)

Current information (Y/N): Y

RCS size: SMALL

Orbital parameters

Period: 98.276 minutes

Inclination: 98.3915 deg

SMA: 7054.388 km

Apoapsis: 728.126 km

Periapsis: 624.38 km

RAAN: 95.8284 deg

Eccentricy: 0.0073533

Argument of periapsis: 157.2026 deg

Mean anomaly: 203.247 deg

Mean motion: 14.65256685 rev/day

Mean motion (dot): 0.00001696 rev/day2

B* drag term: 0.00031206 1/REarth

Two-line elements (TLE)

Creation date: May 6, 2025, 3:54 a.m.

Reference frame: TEME

Reference center: EARTH

Epoch: May 5, 2025, 8:32 p.m. UTC

TLE line 0: 0 AEROCUBE 2

TLE line 1: 1 31133U 07012R 25125.85620124 .00001696 00000-0 31206-3 0 9991

TLE line 2: 2 31133 98.3915 95.8284 0073533 157.2026 203.2470 14.65256685960683

Live tracking on map

Real-time ground track for satellite AEROCUBE 2.

In-orbit conjunctions

A list of the most updated potential collisions computed for object AEROCUBE 2.

Target Orbit TCA Probability of collision Miss distance Type
IRIDIUM 33 DEB LEO 2025-02-13 08:27:50 0.0002712885 126.0 (m) DEBRIS
ARIANE 1 DEB SSO 2024-12-05 15:59:21 0.0001018623 574.0 (m) DEBRIS
COSMOS 2251 DEB LEO 2024-11-26 15:59:15 0.0001070616 566.0 (m) DEBRIS
COSMOS 2251 DEB LEO 2024-08-29 21:35:58 0.0001785723 235.0 (m) DEBRIS

Associated space launch

Rideshare mission with Egyptian and Saudi Arabian Earth observation satellites as well as 14 American cubesats

AEROCUBE 2 was lifted into orbit during the mission ‘Dnepr | EgyptSat 1 & Saudisat 3’, on board a Dnepr space rocket.

The launch took place on April 17, 2007, 6:46 a.m. from 109/95.

For more information about the launch, click the button.

Launch to space Dnepr | EgyptSat 1 & Saudisat 3
Dnepr | EgyptSat 1 & Saudisat 3

Agency: N/A

Status: Launch Successful

Launch date: April 17, 2007, 6:46 a.m. UTC

Rocket: Dnepr

Launch pad: 109/95

Location: Baikonur Cosmodrome, Republic of Kazakhstan

...

Latest news about this satellite

There are no fresh news available about this satellite. Check back as we update our databases every day.


Newsletter sign-up

Weekly statistics, charts and insights to help you stay on top of the space industry.